Tracking 18980 objects as of 20-Feb-2018
HD Live streaming from Space Station
objects crossing your sky now

COSMOS 970 DEB

Track COSMOS 970 DEB now!
10-day predictions


NORAD ID: 10563
Int'l Code: 1977-121E
Perigee: 875.0 km
Apogee: 1,021.7 km
Inclination: 65.8 °
Period: 103.9 minutes
Semi major axis: 7319 km
RCS: 0.0231 m2 (small)
Launch date: December 21, 1977
Source: Commonwealth of Independent States (former USSR) (CIS)
Launch site: TYURATAM MISSILE AND SPACE COMPLEX (TTMTR)

Note: This is SATELLITE DEBRIS
aabbcc
Your satellite tracking list
Your tracking list is empty




NASA's NSSDC Master Catalog

Two Line Element Set (TLE):
1 10563U 77121E   18050.56997226 +.00000367 +00000-0 +37250-3 0  9999
2 10563 065.8489 115.6999 0100264 032.1271 328.5854 13.86418077015293
Source of the keplerian elements: AFSPC